DELTA 1 DEB, 42572

Orbit data source: Space-Track

DELTA 1 DEB, 42572 is space debris in SSO originally from a launch on Tue, 06 Nov 1973 UTC launched from the Air Force Western Test Range (AFWTR). Debris objects in space refer to the collection of defunct objects orbiting the Earth. Examples of debris include non-operational satellites, rocket bodies, and fragments generated from explosions, collisions, or faulty payload assembly.

Loading next visibility...
Identifier
42572, 1973-086HL
Orbit
SSO
Country
Flag of USUS
Related business
Manufacturer
Unknown
Mission
Spacecraft
Bus & Motor
Unknown
Mass
Unknown
Launch date (UTC)
1973-11-06 (53 years ago)
Launch vehicle
Unknown
Launch site
Air Force Western Test Range (AFWTR)
Object type
Payload
Rocket body
Debris
Shape & HBR
Unknown shape, 0.1 m
Radar Cross Section
Small (<0.1 m²)

Expand to show TLE details & history
Last TLE update: 1 month ago

TLE from 1 month ago
0 DELTA 1 DEB
1 42572U 73086HL  26162.25585173 -.00000014  00000-0  11642-3 0  9990
2 42572 101.8773 176.4751 0574327 324.3707  32.0270 12.54308472938509
Epoch: 2026-06-11T06:08Z
TLE epoch observation values (Epoch: 2026-06-11T06:08:25.589Z)
Latitude
-0.0001°
Longitude
-175.23376°
Altitude
1,075.885 km
Speed
7.487 km/s
True Right ascension
11h 45m 54s
True Declination
0° 00' 00"
Sunlit
Object was in daylight at epoch
Visualization orbit readout
Latitude
Unknown
Longitude
Unknown
Altitude
Unknown
Speed
Unknown
Apparent Right ascension
Unknown
Apparent Declination
Unknown
Sunlit
N/A
Visualization observer readout
Local Sidereal Time
00:10:41
Azimuth
Unknown
Elevation
Unknown
Doppler factor
Unknown
Orbital elements
Apogee altitude
1,893.312 km
Perigee altitude
994.812 km
Semi-major axis
7,822.199 km
Eccentricity
0.05743
Inclination
101.8773°
RAAN
176.4751°
Arg. of periapsis
324.3707°
True anomaly
35.74013°
Mean anomaly
32.027°
Eccentric anomaly
33.86046°
Mean motion
3.13726 °/min
Orbital period
114.75 mins
BSTAR
0.00011642
Loading maneuver chart data...
Computing Atmospheric mass density...
Loading historical data...
Loading historical data...
Loading historical data...
Loading historical data...
Loading historical data...
Loading historical data...
Loading historical data...

Documentation

Showing up to 5 results
|